www.pogodaiklimat.ru

Погода и климат >> Архив погоды >> Испания >> Луго


ПОГОДА в Луго

  • Прогноз погоды в Луго
  • Монитор погоды в Луго

АРХИВ ПОГОДЫ в Луго

Время (UTC), дата Ветер
(напр.,м/с)
 
Видим.   Явления Облачность Т
(С)
Тd
(С)
f
(%)
Тe
(С)
Тes
(С)
Комфортность P
(гПа)
Po
(гПа)
Тmin
(С)
Tmax
(С)
R
(мм)
R24
(мм)
S
(см)
19 15.08 СВ 1 20 км н/о +19.7 +14.5 72 +23 +23 комфорт 1021.2 970.0
20 15.08 СВ 1 20 км н/о +16.9 +13.6 81 +18 +18 1021.9 970.2
21 15.08 В 1 18 км н/о +15.3 +13.0 86 +17 +17 1022.4 970.3
22 15.08 З 1 14 км н/о +13.6 +11.5 87 +15 +15 1022.6 970.2
23 15.08 ЮВ 1 9000 м н/о +12.3 +10.7 90 +13 +13 1022.4 969.8
00 16.08 штиль 0 11 км н/о +11.4 +9.8 90 +11 +11 1022.5 969.7
01 16.08 Ю 1 300 м н/о +11.7 +11.2 97 +12 +12 1022.0 969.3
02 16.08 З 1 н/о н/о +10.9 +9.8 93 +11 +11 1022.1 969.2
03 16.08 Ю 1 7000 м н/о +10.3 +9.2 93 +11 +11 1021.5 968.5
04 16.08 Ю 1 12 км н/о +9.1 +7.9 92 +9 +9 1021.6 968.4
05 16.08 ЮВ 1 100 м н/о +9.3 +9.0 98 +9 +9 1021.7 968.5
06 16.08 З 1 100 м н/о +9.7 +9.6 99 +10 +10 1021.6 968.5 +8.9
07 16.08 З 1 300 м н/о +10.0 +9.8 99 +10 +10 1021.7 968.7
08 16.08 ЮВ 1 1000 м н/о +11.1 +10.9 99 +12 +12 1021.2 968.4
09 16.08 С 1 20 км н/о +14.5 +12.9 90 +15 +15 1020.0 967.9
10 16.08 С 1 20 км н/о +18.7 +14.4 76 +21 +21 комфорт 1019.4 968.1
11 16.08 СЗ 2 20 км н/о +23.5 +16.0 63 +27 +27 душно 1018.0 967.6
12 16.08 ЮЗ 2 20 км н/о +26.5 +12.2 41 +28 +28 жарко 1017.1 967.2
13 16.08 З 3 20 км н/о +28.2 +12.9 39 +30 +30 жарко 1016.4 966.8
14 16.08 З 3 20 км н/о +29.2 +11.3 33 +30 +30 жарко 1016.2 966.7
15 16.08 СЗ 3 19 км н/о +28.8 +12.2 36 +30 +30 жарко 1016.0 966.5
16 16.08 З 3 20 км н/о +28.4 +14.6 43 +31 +31 душно 1015.5 966.0
17 16.08 З 3 20 км н/о +27.9 +15.2 46 +31 +31 душно 1015.5 965.9
18 16.08 З 3 20 км н/о +26.1 +15.8 53 +29 +29 жарко 1015.7 965.9 +29.3
19 16.08 З 2 20 км н/о +23.4 +16.2 64 +28 +28 душно 1016.7 966.4
20 16.08 ЮЗ 1 20 км н/о +21.0 +16.4 75 +26 +26 душно 1017.5 966.7
21 16.08 ЮЗ 2 20 км н/о +18.9 +16.1 84 +21 +21 комфорт 1018.7 967.5
22 16.08 З 2 20 км н/о +17.9 +15.5 86 +18 +18 1019.1 967.7
23 16.08 ЮЗ 2 20 км н/о +17.5 +15.7 89 +18 +18 1018.7 967.3
00 17.08 Ю 1 20 км н/о +17.1 +15.1 88 +19 +19 1018.5 967.0
01 17.08 В 1 19 км н/о +15.7 +14.4 92 +17 +17 1018.4 966.6
02 17.08 З 2 18 км н/о +15.0 +14.2 95 +15 +15 1018.2 966.3
03 17.08 ЮЗ 1 20 км н/о +15.5 +14.9 96 +16 +16 1018.1 966.3
04 17.08 Ю 2 20 км н/о +16.2 +14.9 92 +16 +16 1017.7 966.1
05 17.08 Ю 1 20 км н/о +16.3 +14.8 91 +17 +17 1017.9 966.3
06 17.08 Ю 2 20 км н/о +16.8 +14.8 88 +17 +17 1017.7 966.2 +15.0
07 17.08 Ю 2 20 км н/о +17.1 +14.7 86 +17 +17 1017.4 965.9
08 17.08 Ю 3 20 км н/о +18.2 +15.1 82 +19 +19 1017.0 965.8
09 17.08 ЮЗ 3 20 км н/о +19.7 +15.3 76 +22 +22 комфорт 1016.7 965.7
10 17.08 Ю 3 20 км н/о +22.2 +16.2 69 +26 +26 душно 1015.9 965.4
11 17.08 ЮЗ 3 19 км н/о +23.8 +17.1 66 +28 +28 душно 1015.5 965.3
12 17.08 ЮЗ 4 20 км н/о +25.7 +17.1 59 +30 +30 душно 1014.6 964.8
13 17.08 ЮЗ 5 20 км н/о +26.3 +17.1 57 +30 +30 душно 1014.0 964.3
14 17.08 ЮЗ 4 20 км н/о +27.5 +17.7 55 +32 +32 очень
душно
1013.0 963.6
15 17.08 З 5 20 км н/о +28.5 +16.4 48 +32 +32 душно 1012.5 963.2
16 17.08 З 3 20 км н/о +28.2 +17.7 53 +33 +33 очень
душно
1012.3 963.0
17 17.08 З 3 20 км н/о +27.1 +16.7 53 +31 +31 душно 1012.4 962.9
18 17.08 З 4 20 км н/о +25.0 +16.7 60 +29 +29 душно 1012.8 962.9 +28.8
19 17.08 З 4 20 км н/о +22.3 +16.8 71 +27 +27 душно 1013.0 962.7
20 17.08 З 3 20 км н/о +20.5 +16.3 77 +24 +24 комфорт 1013.4 962.8
21 17.08 З 3 20 км н/о +19.3 +15.8 80 +21 +21 комфорт 1013.9 963.0
22 17.08 З 4 20 км н/о +18.6 +15.7 83 +19 +19 1014.5 963.5
23 17.08 ЮЗ 4 20 км н/о +19.5 +15.2 76 +21 +21 комфорт 1014.0 963.1
00 18.08 ЮЗ 3 20 км н/о +19.5 +14.9 75 +22 +22 комфорт 1013.5 962.7
01 18.08 Ю 2 20 км н/о +19.3 +15.0 76 +21 +21 комфорт 1012.9 962.1
02 18.08 ЮЗ 3 20 км н/о +18.8 +15.3 80 +20 +20 1012.3 961.4
03 18.08 Ю 3 20 км н/о +19.0 +15.3 79 +20 +20 1011.8 961.0
04 18.08 ЮЗ 3 8000 м слаб. морось н/о +18.2 +16.2 88 +19 +19 1011.7 960.8 0.0
05 18.08 ЮЗ 2 1700 м морось с дождем н/о +17.4 +16.6 95 +18 +18 1012.7 961.6 0.2
06 18.08 З 2 1700 м морось с дождем н/о +16.7 +16.1 96 +17 +17 1013.7 962.4 +16.7 1
07 18.08 СЗ 2 3300 м морось н/о +15.8 +15.2 96 +16 +16 1014.7 963.2 1
08 18.08 СЗ 1 11 км слаб. морось н/о +15.6 +15.1 97 +16 +16 1015.4 963.8 2
09 18.08 С 1 20 км в посл. час морось {дождь} н/о +16.2 +15.6 96 +18 +18 1015.9 964.4 3
10 18.08 СВ 1 3000 м морось н/о +16.2 +15.4 95 +17 +17 1016.7 965.1 0.2
11 18.08 С 2 2800 м морось с дождем н/о +15.6 +14.6 94 +15 +15 1017.6 965.9 0.6
12 18.08 СВ 2 15 км слаб. морось {дождь} н/о +16.2 +15.1 93 1
13 18.08 СВ 1 13 км слаб. морось н/о +16.9 +14.5 86 0.0
14 18.08 В 2 20 км в посл. час морось н/о +18.0 +14.9 82 0.0
15 18.08 СВ 2 20 км н/о +19.0 +13.8 72 0.0
16 18.08 СВ 2 20 км н/о +19.3 +14.3 73
17 18.08 СВ 2 20 км н/о +18.8 +13.9 73
18 18.08 СВ 2 20 км н/о +16.7 +12.6 77 +20.3
19 18.08 СВ 3 20 км н/о +15.7 +11.5 76
20 18.08 СВ 1 20 км н/о +13.6 +10.6 82
21 18.08 СВ 1 20 км н/о +12.4 +10.1 86
22 18.08 З 1 18 км н/о +11.0 +9.6 91
23 18.08 ЮЗ 1 11 км н/о +10.5 +9.4 93
00 19.08 ЮВ 1 13 км н/о +10.1 +9.0 93
01 19.08 ЮЗ 1 16 км н/о +9.8 +8.7 93
02 19.08 ЮВ 1 10 км н/о +9.4 +8.8 96
03 19.08 Ю 1 11 км н/о +9.5 +8.6 94
04 19.08 З 1 14 км н/о +9.5 +9.0 97
05 19.08 Ю 1 10 км н/о +9.4 +8.9 97
06 19.08 Ю 1 10 км н/о +9.0 +8.2 95 +9.0
07 19.08 З 1 11 км н/о +9.6 +9.1 97
08 19.08 СВ 1 19 км н/о +12.5 +11.6 94 +12 +12 1021.1 968.6
09 19.08 СВ 2 20 км 9/4 300 м
[Sc Ac trans]
+15.5 +12.8 84 +15 +18 1020.7 968.8
10 19.08 СВ 4 20 км н/о +16.3 +10.8 70 +16 +16 1020.7 968.9
11 19.08 СВ 4 20 км н/о +18.9 +12.4 66 +20 +20 1020.1 968.8
12 19.08 СВ 3 25 км 9/5 300 м
[Sc Ac trans Ci fib]
+19.7 +11.5 59 +21 +25 комфорт 1019.8 968.6
13 19.08 СВ 3 20 км н/о +19.5 +12.3 63 +21 +21 комфорт 1019.8 968.6
14 19.08 СВ 2 20 км н/о +19.7 +12.9 65 +22 +22 комфорт 1019.9 968.7
15 19.08 СВ 4 20 км н/о +18.7 +11.5 63 +19 +19 1020.0 968.6
16 19.08 СВ 4 20 км н/о +18.9 +11.0 60 +20 +20 1019.9 968.6
17 19.08 СВ 5 20 км н/о +18.3 +10.9 62 +18 +18 1020.3 968.8
18 19.08 СВ 4 20 км н/о +16.3 +11.0 71 +16 +16 1020.9 969.1 +20.3
19 19.08 СВ 4 20 км н/о +15.4 +10.2 71 +15 +15 1021.2 969.2
20 19.08 СВ 2 20 км н/о +14.2 +11.0 81 +14 +14 1021.8 969.5
21 19.08 СВ 3 20 км н/о +14.2 +11.5 84 +13 +13 1022.2 969.9
22 19.08 СВ 2 20 км н/о +13.8 +11.1 84 +13 +13 1022.2 969.9
23 19.08 СВ 2 20 км н/о +13.8 +11.7 87 +14 +14 1022.4 970.1
00 20.08 СВ 2 20 км н/о +14.1 +12.1 88 +14 +14 1022.4 970.1
01 20.08 СВ 1 20 км н/о +13.8 +12.0 89 +14 +14 1022.0 969.7
02 20.08 СВ 1 20 км н/о +13.0 +11.7 92 +13 +13 1022.1 969.6
03 20.08 СВ 2 20 км н/о +12.8 +11.5 92 +12 +12 1022.0 969.5
04 20.08 СВ 2 20 км н/о +13.1 +12.2 94 +13 +13 1022.0 969.6
05 20.08 СВ 1 20 км н/о +13.7 +11.9 89 +14 +14 1022.4 970.0
06 20.08 СВ 1 20 км н/о +13.3 +11.7 90 +14 +14 1023.1 970.6 +12.6
07 20.08 СВ 2 20 км н/о +13.8 +12.2 90 +13 +13 1023.5 971.1
08 20.08 СВ 3 20 км н/о +16.7 +12.2 75 +16 +16 1023.4 971.5
09 20.08 СВ 3 20 км н/о +18.5 +12.5 68 +19 +19 1023.1 971.6
10 20.08 СВ 4 20 км н/о +20.1 +12.3 61 +22 +22 комфорт 1022.9 971.6
11 20.08 СВ 4 20 км н/о +20.4 +12.6 61 +23 +23 комфорт 1022.6 971.4
12 20.08 СВ 4 20 км н/о +20.3 +12.8 62 +23 +23 комфорт 1022.3 971.1
13 20.08 СВ 3 20 км н/о +21.7 +13.1 58 +24 +24 комфорт 1021.6 970.7
14 20.08 СВ 4 20 км н/о +22.4 +13.5 57 +25 +25 комфорт 1021.2 970.4
15 20.08 СВ 4 20 км н/о +21.9 +13.8 60 +25 +25 комфорт 1020.8 970.0
16 20.08 СВ 3 20 км н/о +21.4 +13.3 60 +24 +24 комфорт 1020.8 969.9
17 20.08 СВ 3 20 км н/о +20.5 +13.5 64 +23 +23 комфорт 1021.1 970.0
18 20.08 СВ 3 20 км н/о +18.6 +13.5 72 +19 +19 1021.8 970.4 +22.5
19 20.08 СВ 3 20 км н/о +16.7 +13.4 81 +16 +16 1022.4 970.6
20 20.08 СВ 2 20 км н/о +15.5 +13.3 87 +16 +16 1022.8 970.8
21 20.08 СВ 2 20 км н/о +14.8 +13.3 91 +15 +15 1023.2 971.0
22 20.08 СВ 2 20 км н/о +14.5 +13.2 92 +14 +14 1023.0 970.8
23 20.08 СВ 2 20 км н/о +14.3 +13.0 92 +14 +14 1022.9 970.6
00 21.08 СВ 1 20 км н/о +14.1 +12.5 90 +14 +14 1022.8 970.5
01 21.08 СВ 1 20 км н/о +13.5 +12.1 91 +14 +14 1022.6 970.2
02 21.08 В 2 20 км н/о +13.3 +12.0 92 +13 +13 1022.4 970.0
03 21.08 В 2 18 км н/о +12.8 +11.9 94 +12 +12 1022.2 969.7
04 21.08 В 1 13 км н/о +12.2 +10.8 91 +13 +13 1022.2 969.6
05 21.08 ЮВ 1 9000 м н/о +10.8 +9.9 94 +10 +10 1022.4 969.5
06 21.08 СВ 1 7000 м н/о +10.1 +9.5 96 +10 +10 1022.6 969.5 +10.1
07 21.08 В 1 17 км н/о +11.4 +11.2 99 +12 +12 1022.6 969.8
08 21.08 В 2 20 км н/о +15.6 +12.7 83 +16 +16 1022.1 970.1
09 21.08 СВ 2 20 км н/о +18.6 +13.2 71 +20 +20 1021.7 970.3
10 21.08 СВ 3 20 км н/о +20.0 +12.7 63 +22 +22 комфорт 1021.4 970.2
11 21.08 СВ 2 19 км н/о +22.6 +13.1 55 +26 +26 жарко 1020.9 970.2
12 21.08 СВ 2 20 км н/о +23.3 +14.0 56 +27 +27 душно 1020.5 969.9
13 21.08 СВ 3 19 км н/о +23.9 +14.3 55 +26 +26 жарко 1020.4 969.9
14 21.08 СВ 3 20 км н/о +23.9 +14.6 56 +27 +27 жарко 1020.3 969.8
15 21.08 СВ 3 20 км н/о +23.3 +15.1 60 +27 +27 душно 1020.0 969.5
16 21.08 СВ 3 20 км н/о +22.5 +14.9 62 +26 +26 жарко 1020.2 969.5
17 21.08 СВ 3 20 км н/о +21.3 +15.2 68 +24 +24 комфорт 1020.7 969.8
18 21.08 СВ 4 20 км н/о +19.0 +14.7 76 +20 +20 1021.2 969.9 +24.2
19 21.08 СВ 3 20 км н/о +17.9 +15.0 83 +18 +18 1021.7 970.2
20 21.08 СВ 3 20 км н/о +16.7 +14.7 88 +17 +17 1022.4 970.6
21 21.08 СВ 2 18 км н/о +16.0 +14.7 92 +16 +16 1022.7 970.8
22 21.08 В 1 16 км н/о +15.5 +14.4 93 +16 +16 1022.7 970.7
23 21.08 СВ 1 9000 м н/о +15.0 +14.0 94 +16 +16 1022.6 970.5
00 22.08 Ю 1 9000 м н/о +13.7 +12.3 91 +15 +15 1022.5 970.1
01 22.08 В 1 7000 м н/о +13.0 +12.2 95 +13 +13 1022.5 970.0
02 22.08 В 1 7000 м н/о +12.9 +12.0 94 +14 +14 1022.2 969.7
03 22.08 В 1 7000 м н/о +12.4 +11.5 94 +13 +13 1022.3 969.7
04 22.08 В 1 6000 м н/о +12.2 +11.7 97 +12 +12 1022.2 969.6
05 22.08 СВ 2 2600 м н/о +13.0 +12.8 99 +12 +12 1021.8 969.4
06 22.08 СВ 1 2900 м н/о +13.3 +13.1 99 +13 +13 1022.2 969.8 +12.1
07 22.08 В 2 7000 м н/о +14.2 +13.9 98 +14 +14 1022.2 970.0
09 22.08 В 2 15 км н/о +19.5 +15.4 77 +22 +22 комфорт 1021.2 970.0
10 22.08 СВ 2 20 км в посл. час морось н/о +22.5 +16.1 67 +27 +27 душно 1020.5 969.8 0.0
11 22.08 СВ 2 20 км в посл. час морось н/о +25.2 +16.6 59 +29 +29 душно 1019.8 969.6 0.0
12 22.08 СВ 2 20 км в посл. час морось н/о +26.9 +17.7 57 +31 +31 душно 1019.0 969.2 0.0
13 22.08 СВ 2 19 км н/о +28.7 +18.2 53 +33 +33 очень
душно
1018.3 968.8
14 22.08 СВ 3 20 км слаб. морось н/о +29.0 +17.8 51 +33 +33 очень
душно
1017.9 968.5 0.0
15 22.08 СВ 2 20 км слаб. морось н/о +29.2 +18.3 52 +34 +34 очень
душно
1017.3 967.9 0.0
16 22.08 СВ 2 20 км н/о +28.6 +17.8 52 +33 +33 очень
душно
1017.3 967.8
17 22.08 СВ 2 20 км н/о +27.2 +17.9 57 +32 +32 очень
душно
1017.2 967.5
18 22.08 СВ 1 20 км н/о +25.6 +17.8 62 +30 +30 душно 1017.5 967.5 +29.7
19 22.08 СВ 1 19 км н/о +22.8 +17.3 71 +28 +28 душно 1018.1 967.6
20 22.08 З 1 18 км н/о +20.1 +16.5 80 +24 +24 комфорт 1018.8 967.8

 

Местоположение метеостанции Луго (Испания): широта 43.12 долгота -7.45 высота над уровнем моря 446 м.

В архиве по умолчанию представлена погода в Луго за последнюю неделю. Архивные данные за месяц целиком и за предыдущие месяцы, начиная с января 2011 года, Вы можете получить, выбрав интересующий диапазон дат из раскрывающегося списка и нажав кнопку "Ввод!".


*Определитесь, кто Вы:
робот инопланетянин человек

Внимание! Время в таблицах - всемирное. Для получения местного времени необходимо прибавить поправку, которая равна 1 ч.

Смотрите также архив погоды в соседних городах и на ближайших метеорологических станциях:

Погода в Кастрополе (Испания) (57 км)
Погода в Эстака-де-Баресе (Испания) (77 км)
Погода в Ла-Корунье (Испания) (83 км)
Погода в Сантьяго (Испания) (83 км)
Погода в Пуэрто-де-Лейтарьегосе (Испания) (86 км)
Погода в Побра-де-Тривес-Сане (Испания) (88 км)
Погода на Кабо Бусто (Испания) (94 км)
Погода в Карбальино (Испания) (94 км)
Погода в Сантьяго-де-Компостеле (Испания) (94 км)
Погода в Оренсе (Испания) (94 км)

Пояснения к столбцам:

Ветер - указаны скорость ветра в м/с - средняя за 10 мин, порывы в срок и между сроками (в фигурных скобках) и направление, откуда дует ветер: С - северный, СВ - северо-восточный, В - восточный, ЮВ - юго-восточный, Ю - южный, ЮЗ - юго-западный, З - западный, СЗ - северо-западный.
Видимость - горизонтальная дальность видимости в метрах или километрах. При видимости от 1 до 10 км при отсутствии осадков обычно наблюдается дымка, при ухудшении видимости до 1 км и менее - туман. В сухую погоду видимость может ухудшаться дымом, пылью или мглою.
Явления - указаны атмосферные явления, наблюдавшиеся в срок или в последний час перед сроком; фигурными скобками обозначены явления, наблюдавшиеся между сроками (за 1-3 часа до срока); квадратными скобками обозначены град или гололедные отложения с указанием их диаметра в мм.
Облачность - указаны через наклонную черту общая и нижняя облачность в баллах и высота нижней границы облаков в метрах; квадратными скобками обозначены формы облаков: Ci - перистые, Cs - перисто-слоистые, Cc - перисто-кучевые, Ac - высококучевые, As - высокослоистые, Sc - слоисто-кучевые, Ns - слоисто-дождевые, Cu - кучевые, Cb - кучево-дождевые. Подробнее классификацию облаков см. в Атласе облаков (PDF).
T - Температура воздуха - температура, измеренная на высоте 2 м над землей.
Td - Температура точки росы - температура, при понижении до которой содержащийся в воздухе водяной пар достигнет насыщения.
f - Относительная влажность воздуха - влажноcть воздуха, измеренная на высоте 2 м над землей.
Te - Эффективная температура - температура, которую ощущает одетый по сезону человек в тени. Характеристика душности погоды. При расчете учитывается влияние влажности воздуха и скорости ветра на теплоощущения человека.
Tes - Эффективная температура на солнце - температура, которую ощущает человек, с поправкой на солнечный нагрев. Характеристика знойности погоды. Зависит от высоты солнца над горизонтом, облачности и скорости ветра. Ночью, в пасмурную погоду, а также при ветре 12 м/с и более поправка равна нулю.
P - Атмосферное давление - приведенное к уровню моря атмосферное давление.
Po - Атмосферное давление - измеренное на уровне метеостанции атмосферное давление.
Tmin - Минимальная температура - минимум температуры воздуха на высоте 2 м над землей.
Tmax - Максимальная температура - максимум температуры воздуха на высоте 2 м над землей.
R - Количество осадков - Количество выпавших осадков за период времени, мм. При наведении курсора мыши на число - период времени, за который выпало указанное количество осадков.
R24 - Количество осадков - Количество выпавших осадков за 24 часа, мм.
S - Снежный покров - Высота снежного покрова, см. При наведении курсора мыши на число - состояние снежного покрова и степень покрытия местности в баллах.